Flag for Estonia Weather past 2 weeks in Tartu, Estonia

Now
54 °F

Rain. Low clouds.


Feels Like: 53 °F
Forecast: 33 / 53 °F
Wind: 3 mph from Northeast

Location: Tartu/Ulenurme

Current Time: Sep 23, 2014 at 4:11:26 AM

Latest Report: Sep 23, 2014 at 2:50 AM


Visibility: 1 mi

Pressure: 29.45 "Hg

Humidity: 94%

Dew point: 52 °F

Location of TartuLocation

Historic Weather in Tartu — Graph

°F

Tartu temperature yesterday

Maximum temperature yesterday: 57 °F (at 1:50 PM)
Minimum temperature yesterday: 48 °F (at 5:50 AM)
Average temperature yesterday: 54 °F

Past Weeks' High & Low Weather Summary

 TemperatureHumidityPressure
High73 °F (Sep 8, 2:50 PM)100% (Sep 10, 8:50 AM)30.45 "Hg (Sep 10, 8:50 AM)
Low36 °F (Sep 15, 5:50 AM)37% (Sep 20, 2:50 PM)29.45 "Hg (Sep 23, 2:50 AM)
Average55 °F79%30.16 "Hg
* Reported Sep 8 2:50 AM — Sep 23 2:50 AM, Tartu, Weather by CustomWeather, © 2014

Note: Actual official high and low records may vary slightly from our data, if they occured in-between our weather recording intervals... More about our weather records

Advertising

Tartu weather history for previous 24 hours

 ConditionsComfort  
Time TempWeatherWind HumidityBarometerVisibility
2:50 AM
Sep 23
54 °FRain. Low clouds.3 mph94%29.45 "Hg1 mi
1:50 AM54 °FRain. Low clouds.2 mph94%29.47 "Hg1 mi
12:50 AM54 °FDrizzle. Mostly cloudy.3 mph94%29.50 "Hg2 mi
11:50 PM
Sep 22
54 °FDrizzle. Overcast.6 mph94%29.53 "Hg4 mi
10:50 PM54 °FFog.5 mph94%29.53 "Hg4 mi
9:50 PM55 °FFog.1 mph88%29.53 "Hg4 mi
8:50 PM55 °FOvercast.6 mph88%29.56 "HgN/A
7:50 PM55 °FFog.8 mph88%29.56 "Hg6 mi
6:50 PM57 °FOvercast.10 mph82%29.56 "Hg5 mi
5:50 PM57 °FOvercast.6 mph88%29.56 "Hg6 mi
4:50 PM57 °FOvercast.5 mph88%29.59 "Hg4 mi
3:50 PM57 °FLight rain. Mostly cloudy.5 mph88%29.59 "Hg5 mi
2:50 PM57 °FOvercast.7 mph82%29.59 "Hg6 mi
1:50 PM57 °FFog.8 mph82%29.59 "Hg6 mi
12:50 PM55 °FLow clouds.8 mph88%29.59 "Hg5 mi
11:50 AM54 °FLow clouds.6 mph88%29.59 "HgN/A
10:50 AM52 °FLow clouds.7 mph88%29.62 "HgN/A
9:50 AM52 °FMostly cloudy.6 mph88%29.62 "HgN/A
8:50 AM52 °FPartly sunny.7 mph82%29.59 "HgN/A
7:50 AM50 °FPassing clouds.5 mph88%29.62 "HgN/A
6:50 AM48 °FPassing clouds.3 mph87%29.62 "HgN/A
5:50 AM48 °FPassing clouds.6 mph87%29.62 "HgN/A
4:50 AM50 °FCool.7 mph88%29.65 "HgN/A
Weather by CustomWeather, © 2014

See weather overviewHow to use our weather pages